This is the latest recevied weather packets stored in our database for station/object AB1AU. If no packets are shown the sender has not sent any weather packets the latest 10 day(s).
| Time | Temp. | Humidity | Pressure | Rain* | Wind** | Luminosity | Snow |
|---|---|---|---|---|---|---|---|
| 1787916501 | 21.67° C | 88% | 1016.5 hPa | 0 mm | - | 24 W/m² | - |
| 1787916196 | 21.67° C | 88% | 1016.6 hPa | 0 mm | - | 25 W/m² | - |
| 1787915891 | 21.67° C | 89% | 1016.4 hPa | 0 mm | - | 40 W/m² | - |
| 1787915587 | 21.11° C | 89% | 1016.7 hPa | 0 mm | - | 40 W/m² | - |
| 1787915286 | 21.11° C | 90% | 1016.6 hPa | 0 mm | - | 29 W/m² | - |
| 1787914981 | 21.11° C | 90% | 1016.6 hPa | 0 mm | - | 34 W/m² | - |
| 1787914680 | 21.11° C | 90% | 1016.5 hPa | 0 mm | - | 34 W/m² | - |
| 1787914375 | 21.11° C | 90% | 1016.5 hPa | 0 mm | - | 24 W/m² | - |
| 1787914070 | 20.56° C | 90% | 1016.4 hPa | 0 mm | - | 14 W/m² | - |
| 1787913768 | 20.56° C | 90% | 1016.4 hPa | 0 mm | - | 14 W/m² | - |
| 1787913463 | 20.56° C | 90% | 1016.3 hPa | 0 mm | - | 13 W/m² | - |
| 1787913162 | 20.56° C | 90% | 1016.4 hPa | 0 mm | - | 11 W/m² | - |
| 1787912857 | 20.56° C | 90% | 1016.3 hPa | 0 mm | - | 5 W/m² | - |
| 1787912552 | 20.56° C | 90% | 1016.1 hPa | 0 mm | - | 3 W/m² | - |
| 1787912250 | 20.56° C | 90% | 1016.3 hPa | 0 mm | - | 2 W/m² | - |
| 1787911945 | 20.56° C | 90% | 1016.3 hPa | 0 mm | - | 2 W/m² | - |
| 1787911641 | 20.56° C | 90% | 1016.2 hPa | 0 mm | - | 2 W/m² | - |
| 1787911340 | 20.56° C | 90% | 1016 hPa | 0 mm | - | 2 W/m² | - |
| 1787911040 | 20.56° C | 90% | 1015.7 hPa | 0 mm | - | 1 W/m² | - |
| 1787910732 | 20.56° C | 90% | 1015.9 hPa | 0 mm | - | 0 W/m² | - |
| 1787910431 | 20.56° C | 90% | 1015.9 hPa | 0 mm | - | 0 W/m² | - |
| 1787910134 | 20.56° C | 90% | 1015.8 hPa | 0 mm | - | 0 W/m² | - |
| 1787909824 | 20.56° C | 90% | 1015.8 hPa | 0 mm | - | 0 W/m² | - |
| 1787909523 | 20° C | 90% | 1016.1 hPa | 0 mm | - | 0 W/m² | - |
| 1787909220 | 20.56° C | 90% | 1015.9 hPa | 0 mm | - | 0 W/m² | - |
* Rain latest hour (hover to see other rain measurements)
** Current wind speed in m/s (hover to see current wind gust speed)